DEL03 12.20 39.31969 -75.6061 0.000 0.000 20200710_2320 DEDOT DE 1 @ Paddock Rd, Smyrna DE USA current weather conditions

sailwx.info

Wind from 235 at 4 knots gusting 8

Air temperature 24.9° C
Dewpoint 22.1° C

Last reported at 2020-Jul-11 01:00 UTC.
Time now 2020-Jul-11 01:39 UTC

Location: N 39°19' W 075°36'.
View on Google Maps.

See reports from other nearby stations

  
Tides and Currents Weather Stations Pressure Air Temp Water Temp Dewpoint Dewpoint Depression Visibility Wind Speed Wind Dir Waves Ship Positions
date/time (UTC)wind fromknots sea level pressurealtimeterstation pressurevisibilityair tempwater tempwave heightnotes
2020-Jul-11 01:00 235 4 gusting 8 24.9
2020-Jul-11 00:55 225 3 gusting 7 24.9
2020-Jul-11 00:50 240 4 gusting 7 24.8
2020-Jul-11 00:45 245 5 gusting 7 24.8
2020-Jul-11 00:40 245 4 gusting 7 24.8
2020-Jul-11 00:35 255 4 gusting 7 24.8
2020-Jul-11 00:30 245 4 gusting 8 24.8
2020-Jul-11 00:25 270 5 gusting 8 24.9
2020-Jul-11 00:20 280 5 gusting 14 25.1
2020-Jul-11 00:15 260 7 gusting 17 25.1
2020-Jul-11 00:10 275 10 gusting 19 25.4
2020-Jul-11 00:05 280 12 gusting 19 25.4
2020-Jul-11 00:00 265 5 gusting 11 25.2
2020-Jul-10 23:55 235 6 gusting 11 25.1
2020-Jul-10 23:50 245 5 gusting 11 25.1
2020-Jul-10 23:45 245 5 gusting 10 25.1
2020-Jul-10 23:40 255 7 gusting 10 25.1
2020-Jul-10 23:35 245 4 gusting 10 25.1
2020-Jul-10 23:30 255 6 gusting 11 25.1
2020-Jul-10 23:25 255 6 gusting 12 24.9
2020-Jul-10 23:20 260 6 gusting 12 24.8
2020-Jul-10 23:15 255 6 gusting 13 24.6
2020-Jul-10 23:10 280 8 gusting 19 24.4
2020-Jul-10 23:05 290 9 gusting 22 24.2
2020-Jul-10 23:00 290 12 gusting 22 24.4
2020-Jul-10 22:55 280 10 gusting 19 24.8
2020-Jul-10 22:50 285 10 gusting 23 24.9
2020-Jul-10 22:45 260 15 gusting 23 24.4
2020-Jul-10 22:40 260 9 gusting 19 24.2
2020-Jul-10 22:35 275 12 gusting 18 24.1
2020-Jul-10 22:30 275 8 gusting 19 24.2
2020-Jul-10 22:25 280 12 gusting 19 24.6
2020-Jul-10 22:20 260 11 gusting 18 25.1
2020-Jul-10 22:15 265 10 gusting 17 24.9
2020-Jul-10 22:10 270 11 gusting 19 24.9
2020-Jul-10 22:05 265 8 gusting 19 25.1
2020-Jul-10 22:00 275 10 gusting 16 24.9
2020-Jul-10 21:55 255 8 gusting 18 25.1
2020-Jul-10 21:50 265 8 gusting 16 25.1
2020-Jul-10 21:45 270 9 gusting 18 25.1
2020-Jul-10 21:40 255 11 gusting 18 25.2
2020-Jul-10 21:35 275 11 gusting 19 25.4
2020-Jul-10 21:30 280 11 gusting 19 25.2
2020-Jul-10 21:25 260 8 gusting 18 25.2
2020-Jul-10 21:20 265 10 gusting 20 24.9
2020-Jul-10 21:15 280 12 gusting 20 24.6
2020-Jul-10 21:10 275 8 gusting 15 24.4
2020-Jul-10 21:05 295 9 gusting 15 24.2
2020-Jul-10 21:00 300 8 gusting 15 24.2
2020-Jul-10 20:55 270 9 gusting 19 24.1
2020-Jul-10 20:50 290 11 gusting 19 24.2
2020-Jul-10 20:45 280 11 gusting 17 24.2
2020-Jul-10 20:40 295 10 gusting 18 24.4
2020-Jul-10 20:35 280 11 gusting 19 24.4
2020-Jul-10 20:30 290 11 gusting 19 24.4
2020-Jul-10 20:25 280 13 gusting 18 24.4
2020-Jul-10 20:20 300 11 gusting 21 24.4
2020-Jul-10 20:15 290 13 gusting 23 24.2
2020-Jul-10 20:10 310 13 gusting 23 24.1
2020-Jul-10 20:05 300 15 gusting 25 23.9
2020-Jul-10 20:00 300 14 gusting 25 23.8
2020-Jul-10 19:55 315 14 gusting 23 23.6
2020-Jul-10 19:50 310 14 gusting 25 23.6
2020-Jul-10 19:45 295 13 gusting 21 23.4
2020-Jul-10 19:40 300 12 gusting 22 23.4
2020-Jul-10 19:35 305 16 gusting 22 23.4
2020-Jul-10 19:30 300 13 gusting 25 23.4
2020-Jul-10 19:25 305 17 gusting 25 23.1
2020-Jul-10 19:20 305 14 gusting 25 23.1
2020-Jul-10 19:15 305 16 gusting 25 23.1
2020-Jul-10 19:10 305 19 gusting 25 22.9
2020-Jul-10 19:05 300 17 gusting 23 22.9
2020-Jul-10 19:00 300 14 gusting 21 23.1
2020-Jul-10 18:55 300 14 gusting 24 23.1
2020-Jul-10 18:50 300 15 gusting 24 23.1
2020-Jul-10 18:45 300 13 gusting 21 23.1
2020-Jul-10 18:40 300 14 gusting 24 23.1
2020-Jul-10 18:35 295 14 gusting 24 23.1
2020-Jul-10 18:30 295 16 gusting 23 22.9
2020-Jul-10 18:25 300 13 gusting 23 22.9
2020-Jul-10 18:20 315 15 gusting 23 22.9
2020-Jul-10 18:15 305 15 gusting 21 22.9
2020-Jul-10 18:10 310 12 gusting 20 22.8
2020-Jul-10 18:05 310 15 gusting 21 22.6
2020-Jul-10 18:00 320 13 gusting 21 22.8
2020-Jul-10 17:55 325 13 gusting 20 22.6
2020-Jul-10 17:50 320 13 gusting 21 22.6
2020-Jul-10 17:45 330 13 gusting 21 22.6
2020-Jul-10 17:40 325 11 gusting 20 22.6
2020-Jul-10 17:35 335 11 gusting 20 22.8
2020-Jul-10 17:30 350 10 gusting 17 22.8
2020-Jul-10 17:25 330 10 gusting 20 22.8
2020-Jul-10 17:20 320 7 gusting 20 22.8
2020-Jul-10 17:15 330 11 gusting 18 22.8
2020-Jul-10 17:10 335 11 gusting 18 22.9
2020-Jul-10 17:05 315 13 gusting 19 22.9
2020-Jul-10 17:00 325 12 gusting 19 22.9
2020-Jul-10 16:55 325 12 gusting 19 22.9
2020-Jul-10 16:50 315 8 gusting 14 23.1
2020-Jul-10 16:45 315 8 gusting 17 22.9
2020-Jul-10 16:40 315 9 gusting 17 22.9
2020-Jul-10 16:35 335 9 gusting 20 22.8
2020-Jul-10 16:30 350 9 gusting 20 22.8
2020-Jul-10 16:25 345 12 gusting 18 22.6
2020-Jul-10 16:20 340 9 gusting 20 22.8
2020-Jul-10 16:15 320 11 gusting 20 22.9
2020-Jul-10 16:10 325 12 gusting 21 23.1
2020-Jul-10 16:05 320 15 gusting 21 22.9
2020-Jul-10 16:00 325 11 gusting 18 22.9
2020-Jul-10 15:55 320 9 gusting 20 22.8
2020-Jul-10 15:50 335 6 gusting 20 22.8
2020-Jul-10 15:45 335 10 gusting 19 22.9
2020-Jul-10 15:40 23.1
2020-Jul-10 15:35 005 6 gusting 15 22.9
2020-Jul-10 15:30 23.2
2020-Jul-10 15:25 345 7 gusting 18 23.4
2020-Jul-10 15:20 345 10 gusting 18 23.1
2020-Jul-10 15:15 005 8 gusting 14 23.1
2020-Jul-10 15:10 005 6 gusting 14 23.1
2020-Jul-10 15:05 350 8 gusting 14 23.4
2020-Jul-10 15:00 010 6 gusting 19 23.8
2020-Jul-10 14:55 350 9 gusting 21 23.6
2020-Jul-10 14:50 325 7 gusting 13 23.6
2020-Jul-10 14:45 355 6 gusting 11 23.6
2020-Jul-10 14:40 335 6 gusting 13 23.8
2020-Jul-10 14:35 335 8 gusting 14 23.9
2020-Jul-10 14:30 350 5 gusting 14 23.9
2020-Jul-10 14:25 005 6 gusting 13 23.8
2020-Jul-10 14:20 330 6 gusting 13 23.8
2020-Jul-10 14:15 345 6 gusting 16 23.9
2020-Jul-10 14:10 355 7 gusting 16 23.9
2020-Jul-10 14:05 345 6 gusting 11 23.9
2020-Jul-10 14:00 335 6 gusting 13 23.9
2020-Jul-10 13:55 005 6 gusting 13 23.9
2020-Jul-10 13:50 345 6 gusting 11 23.9
2020-Jul-10 13:45 350 6 gusting 11 23.9
2020-Jul-10 13:40 015 4 gusting 11 23.9
2020-Jul-10 13:35 355 5 gusting 13 23.9
2020-Jul-10 13:30 345 6 gusting 13 23.9
2020-Jul-10 13:25 010 5 gusting 13 23.9
2020-Jul-10 13:20 350 7 gusting 14 23.9
2020-Jul-10 13:15 23.9
2020-Jul-10 13:10 340 5 gusting 13 23.9
2020-Jul-10 13:05 23.9
2020-Jul-10 13:00 23.9
2020-Jul-10 12:55 010 6 gusting 11 23.9
2020-Jul-10 12:50 23.9
2020-Jul-10 12:45 23.9
2020-Jul-10 12:40 005 7 gusting 12 23.9
2020-Jul-10 12:35 345 6 gusting 13 23.9
2020-Jul-10 12:30 340 6 gusting 13 23.9
2020-Jul-10 12:25 335 5 gusting 10 23.9
2020-Jul-10 12:20 23.9
2020-Jul-10 12:15 340 5 gusting 10 23.9
2020-Jul-10 12:10 335 5 gusting 10 23.9
2020-Jul-10 12:05 005 5 gusting 10 24.1
2020-Jul-10 12:00 345 5 gusting 10 24.1
2020-Jul-10 11:55 005 4 gusting 10 23.9
2020-Jul-10 11:50 005 3 gusting 8 23.9
2020-Jul-10 11:45 350 4 gusting 9 24.1
2020-Jul-10 11:40 005 5 gusting 9 23.9
2020-Jul-10 11:35 23.9
2020-Jul-10 11:30 330 3 gusting 9 23.9
2020-Jul-10 11:25 345 6 gusting 9 23.9
2020-Jul-10 11:20 015 3 gusting 9 23.9
2020-Jul-10 11:15 005 5 gusting 11 23.9
2020-Jul-10 11:10 010 5 gusting 12 23.9
2020-Jul-10 11:05 050 4 gusting 12 24.1
2020-Jul-10 11:00 030 5 gusting 10 23.9
2020-Jul-10 10:55 035 4 gusting 10 23.9
2020-Jul-10 10:50 010 4 gusting 9 24.1
2020-Jul-10 10:45 010 5 gusting 9 24.1
2020-Jul-10 10:40 005 3 gusting 9 24.1
2020-Jul-10 10:35 020 4 gusting 8 24.1
2020-Jul-10 10:30 050 4 gusting 8 24.1
2020-Jul-10 10:25 010 3 gusting 10 24.1
2020-Jul-10 10:20 040 3 gusting 10 24.1
2020-Jul-10 10:15 050 4 gusting 9 24.1
2020-Jul-10 10:10 035 3 gusting 9 24.1
2020-Jul-10 10:05 050 4 gusting 9 24.1
2020-Jul-10 10:00 025 3 gusting 8 24.1
2020-Jul-10 09:55 045 4 gusting 7 24.2
2020-Jul-10 09:50 030 3 gusting 8 24.1
2020-Jul-10 09:45 010 4 gusting 8 24.1
2020-Jul-10 09:40 355 4 gusting 8 24.2
2020-Jul-10 09:35 015 4 gusting 9 24.2
2020-Jul-10 09:30 350 4 gusting 9 24.2
2020-Jul-10 09:25 005 4 gusting 7 24.2
2020-Jul-10 09:20 005 3 gusting 8 24.2
2020-Jul-10 09:15 030 2 gusting 8 24.2
2020-Jul-10 09:10 24.2
2020-Jul-10 09:05 020 5 gusting 9 24.4
2020-Jul-10 09:00 24.4
2020-Jul-10 08:55 24.4
2020-Jul-10 08:50 015 3 gusting 7 24.4
2020-Jul-10 08:45 005 3 gusting 5 24.4
2020-Jul-10 08:40 025 2 gusting 9 24.4
2020-Jul-10 08:35 035 3 gusting 9 24.4
2020-Jul-10 08:30 025 4 gusting 8 24.4
2020-Jul-10 08:25 015 3 gusting 6 24.4
2020-Jul-10 08:20 24.4
2020-Jul-10 08:15 010 3 gusting 7 24.4
2020-Jul-10 08:10 015 2 gusting 6 24.4
2020-Jul-10 08:05 020 2 gusting 6 24.4
2020-Jul-10 08:00 045 3 gusting 6 24.4
2020-Jul-10 07:55 015 3 gusting 6 24.6
2020-Jul-10 07:50 015 3 gusting 6 24.6
2020-Jul-10 07:45 015 4 gusting 6 24.6
2020-Jul-10 07:40 030 3 gusting 6 24.6
2020-Jul-10 07:35 005 3 gusting 6 24.6
2020-Jul-10 07:30 350 3 gusting 6 24.6
2020-Jul-10 07:25 030 4 gusting 6 24.6
2020-Jul-10 07:20 025 2 gusting 5 24.6
2020-Jul-10 07:15 005 3 gusting 5 24.6
2020-Jul-10 07:10 035 2 gusting 5 24.6
2020-Jul-10 07:05 015 1 gusting 4 24.6
2020-Jul-10 07:00 040 2 gusting 6 24.6
2020-Jul-10 06:55 010 2 gusting 6 24.6
2020-Jul-10 06:50 025 3 gusting 6 24.6
2020-Jul-10 06:45 005 3 gusting 6 24.6
2020-Jul-10 06:40 015 2 gusting 5 24.6
2020-Jul-10 06:35 040 2 gusting 6 24.6
2020-Jul-10 06:30 020 2 gusting 6 24.6
2020-Jul-10 06:25 045 2 gusting 6 24.6
2020-Jul-10 06:20 010 2 gusting 4 24.6
2020-Jul-10 06:15 055 2 gusting 4 24.6
2020-Jul-10 06:10 020 2 gusting 4 24.6
2020-Jul-10 06:05 015 2 gusting 4 24.4
2020-Jul-10 06:00 020 2 gusting 4 24.4
2020-Jul-10 05:55 025 2 gusting 4 24.4
2020-Jul-10 05:50 015 2 gusting 4 24.6
2020-Jul-10 05:45 010 1 gusting 4 24.6
2020-Jul-10 05:40 025 2 gusting 4 24.6
2020-Jul-10 05:35 045 1 gusting 3 24.6
2020-Jul-10 05:30 040 2 gusting 5 24.6
2020-Jul-10 05:25 050 2 gusting 5 24.8
2020-Jul-10 05:20 040 2 gusting 6 24.8
2020-Jul-10 05:15 040 3 gusting 6 24.8
2020-Jul-10 05:10 065 2 gusting 6 24.9
2020-Jul-10 05:05 045 4 gusting 7 24.9
2020-Jul-10 05:00 070 3 gusting 7 24.9
2020-Jul-10 04:55 090 2 gusting 5 24.9
2020-Jul-10 04:50 065 3 gusting 6 24.9
2020-Jul-10 04:45 075 4 gusting 6 24.9
2020-Jul-10 04:40 065 4 gusting 5 24.9
2020-Jul-10 04:35 055 1 gusting 7 24.9
2020-Jul-10 04:30 065 2 gusting 7 24.9
2020-Jul-10 04:25 060 2 gusting 7 24.9
2020-Jul-10 04:20 065 4 gusting 7 25.1
2020-Jul-10 04:15 055 3 gusting 6 24.9
2020-Jul-10 04:10 075 3 gusting 8 24.9
2020-Jul-10 04:05 060 4 gusting 8 24.9
2020-Jul-10 04:00 075 4 gusting 8 24.9
2020-Jul-10 03:55 065 5 gusting 8 24.9
2020-Jul-10 03:50 085 3 gusting 5 24.9
2020-Jul-10 03:45 080 2 gusting 6 24.8
2020-Jul-10 03:40 085 3 gusting 6 24.8
2020-Jul-10 03:35 090 2 gusting 5 24.6
2020-Jul-10 03:30 075 2 gusting 5 24.6
2020-Jul-10 03:25 065 3 gusting 4 24.8
2020-Jul-10 03:20 045 1 gusting 3 24.6
2020-Jul-10 03:15 045 2 gusting 5 24.8
2020-Jul-10 03:10 055 2 gusting 5 24.8
2020-Jul-10 03:05 065 2 gusting 3 24.8
2020-Jul-10 03:00 080 1 gusting 3 24.8
2020-Jul-10 02:55 065 1 gusting 4 24.9
2020-Jul-10 02:50 035 1 gusting 4 24.9
2020-Jul-10 02:45 055 1 gusting 4 24.9
2020-Jul-10 02:40 060 2 gusting 4 24.9
2020-Jul-10 02:35 060 2 gusting 4 24.9
2020-Jul-10 02:30 055 2 gusting 4 25.1
2020-Jul-10 02:25 070 2 gusting 4 25.1
2020-Jul-10 02:20 060 2 gusting 5 25.1
2020-Jul-10 02:15 085 2 gusting 5 25.1
2020-Jul-10 02:10 080 2 gusting 4 25.1
2020-Jul-10 02:05 095 3 gusting 4 25.1
2020-Jul-10 02:00 090 3 gusting 4 25.1
2020-Jul-10 01:55 060 2 gusting 4 25.1
2020-Jul-10 01:50 080 2 gusting 4 25.4
2020-Jul-10 01:45 090 2 gusting 3 25.4
2020-Jul-10 01:40 100 2 gusting 3 25.4
2020-Jul-10 01:35 100 2 gusting 3 25.4
2020-Jul-10 01:30 060 1 gusting 3 25.6
2020-Jul-10 01:25 095 2 gusting 3 25.6
2020-Jul-10 01:20 090 0 gusting 2 25.6
2020-Jul-10 01:15 085 1 gusting 2 25.6
2020-Jul-10 01:10 070 1 gusting 3 25.9
2020-Jul-10 01:05 085 1 gusting 3 25.9
2020-Jul-10 01:00 100 1 gusting 3 25.9
2020-Jul-10 00:55 095 1 gusting 2 26.1
2020-Jul-10 00:50 075 1 gusting 3 26.1
2020-Jul-10 00:45 070 0 gusting 4 26.2
2020-Jul-10 00:40 095 1 gusting 4 26.4
2020-Jul-10 00:35 100 2 gusting 5 26.4
2020-Jul-10 00:30 105 4 gusting 6 26.6
2020-Jul-10 00:25 110 3 gusting 6 26.6
2020-Jul-10 00:20 125 3 gusting 5 26.8
2020-Jul-10 00:15 105 3 gusting 6 26.9
2020-Jul-10 00:10 110 3 gusting 6 27.1
2020-Jul-10 00:05 090 2 gusting 8 27.2
2020-Jul-10 00:00 090 2 gusting 8 27.2
2020-Jul-09 23:55 105 5 gusting 8 27.4
2020-Jul-09 23:50 115 4 gusting 9 27.4
2020-Jul-09 23:45 100 6 gusting 9 27.4
2020-Jul-09 23:40 105 5 gusting 8 27.4
2020-Jul-09 23:35 110 3 gusting 11 27.6
2020-Jul-09 23:30 115 7 gusting 11 27.4
2020-Jul-09 23:25 110 5 gusting 10 27.6
2020-Jul-09 23:20 120 5 gusting 10 27.9
2020-Jul-09 23:15 120 6 gusting 11 27.9
2020-Jul-09 23:10 115 8 gusting 11 28.1
2020-Jul-09 23:05 110 6 gusting 10 28.2
2020-Jul-09 23:00 120 7 gusting 11 28.2
2020-Jul-09 22:55 115 8 gusting 12 28.6
2020-Jul-09 22:50 140 8 gusting 12 28.8
2020-Jul-09 22:45 140 6 gusting 11 28.8
2020-Jul-09 22:40 130 8 gusting 11 28.6
2020-Jul-09 22:35 135 8 gusting 12 28.9
2020-Jul-09 22:30 125 7 gusting 12 29.6
2020-Jul-09 22:25 140 8 gusting 11 29.4
2020-Jul-09 22:20 110 6 gusting 10 29.1
2020-Jul-09 22:15 120 6 gusting 11 29.2
2020-Jul-09 22:10 120 5 gusting 12 29.1
2020-Jul-09 22:05 110 8 gusting 11 28.8
2020-Jul-09 22:00 105 7 gusting 11 29.1
2020-Jul-09 21:55 110 7 gusting 12 29.4
2020-Jul-09 21:50 135 9 gusting 16 29.6
2020-Jul-09 21:45 140 9 gusting 16 29.8
2020-Jul-09 21:40 125 7 gusting 14 30.1
2020-Jul-09 21:35 135 8 gusting 14 30.1
2020-Jul-09 21:30 130 8 gusting 13 30.2
2020-Jul-09 21:25 115 7 gusting 13 29.9
2020-Jul-09 21:20 135 10 gusting 13 29.9
2020-Jul-09 21:15 130 8 gusting 14 29.9
2020-Jul-09 21:10 145 7 gusting 14 29.9
2020-Jul-09 21:05 135 11 gusting 14 29.8
2020-Jul-09 21:00 125 8 gusting 15 30.1
2020-Jul-09 20:55 130 9 gusting 15 30.6
2020-Jul-09 20:50 120 7 gusting 12 30.9
2020-Jul-09 20:45 115 9 gusting 12 30.8
2020-Jul-09 20:40 115 8 gusting 14 30.6
2020-Jul-09 20:35 110 10 gusting 14 30.6
2020-Jul-09 20:30 120 9 gusting 12 30.8
2020-Jul-09 20:25 100 6 gusting 11 30.8
2020-Jul-09 20:20 090 7 gusting 13 30.8
2020-Jul-09 20:15 115 8 gusting 13 30.9
2020-Jul-09 20:10 105 7 gusting 11 31.1
2020-Jul-09 20:05 130 6 gusting 11 31.2
2020-Jul-09 20:00 145 7 gusting 11 31.1
2020-Jul-09 19:55 105 7 gusting 11 30.9
2020-Jul-09 19:50 135 8 gusting 11 30.9
2020-Jul-09 19:45 110 5 gusting 12 31.1
2020-Jul-09 19:40 115 7 gusting 12 30.9
2020-Jul-09 19:35 115 7 gusting 11 31.1
2020-Jul-09 19:30 115 7 gusting 11 30.9
2020-Jul-09 19:25 120 7 gusting 13 31.1
2020-Jul-09 19:20 135 8 gusting 13 30.8
2020-Jul-09 19:15 110 9 gusting 13 30.9
2020-Jul-09 19:10 100 9 gusting 13 30.9
2020-Jul-09 19:05 115 7 gusting 13 31.2
2020-Jul-09 19:00 135 8 gusting 13 31.1
2020-Jul-09 18:55 120 6 gusting 13 31.1
2020-Jul-09 18:50 110 9 gusting 13 30.9
2020-Jul-09 18:45 140 7 gusting 13 30.8
2020-Jul-09 18:40 140 9 gusting 13 30.4
2020-Jul-09 18:35 115 6 gusting 11 31.6
2020-Jul-09 18:30 120 6 gusting 12 31.1
2020-Jul-09 18:25 105 7 gusting 12 30.8
2020-Jul-09 18:20 095 7 gusting 12 30.8
2020-Jul-09 18:15 110 6 gusting 10 31.4
2020-Jul-09 18:10 105 5 gusting 10 30.9
2020-Jul-09 18:05 115 5 gusting 9 30.8
2020-Jul-09 18:00 105 5 gusting 12 30.6
2020-Jul-09 17:55 135 8 gusting 12 30.2
2020-Jul-09 17:50 115 6 gusting 10 31.1
2020-Jul-09 17:45 120 6 gusting 10 31.4
2020-Jul-09 17:40 140 7 gusting 10 31.1
2020-Jul-09 17:35 105 6 gusting 13 30.6
2020-Jul-09 17:30 145 8 gusting 13 30.8
2020-Jul-09 17:25 145 6 gusting 11 30.4
2020-Jul-09 17:20 145 6 gusting 11 30.8
2020-Jul-09 17:15 140 6 gusting 10 31.6
2020-Jul-09 17:10 100 6 gusting 12 30.8
2020-Jul-09 17:05 135 9 gusting 12 30.6
2020-Jul-09 17:00 150 6 gusting 10 31.4
2020-Jul-09 16:55 140 6 gusting 10 31.1
2020-Jul-09 16:50 140 5 gusting 9 30.6
2020-Jul-09 16:45 125 3 gusting 8 30.6
2020-Jul-09 16:40 115 2 gusting 8 30.8
2020-Jul-09 16:35 115 5 gusting 8 30.8
2020-Jul-09 16:30 120 5 gusting 8 30.8
2020-Jul-09 16:25 085 5 gusting 9 30.4
2020-Jul-09 16:20 115 5 gusting 10 30.4
2020-Jul-09 16:15 120 6 gusting 10 30.4
2020-Jul-09 16:10 115 5 gusting 9 30.4
2020-Jul-09 16:05 100 5 gusting 9 30.1
2020-Jul-09 16:00 130 4 gusting 10 30.1
2020-Jul-09 15:55 120 7 gusting 10 29.9
2020-Jul-09 15:50 130 5 gusting 10 30.2
2020-Jul-09 15:45 105 7 gusting 10 30.1
2020-Jul-09 15:40 095 5 gusting 8 30.1
2020-Jul-09 15:35 120 4 gusting 8 29.4
2020-Jul-09 15:30 080 4 gusting 8 29.1
2020-Jul-09 15:25 100 5 gusting 8 29.1
2020-Jul-09 15:20 065 5 gusting 8 29.4
2020-Jul-09 15:15 070 5 gusting 9 29.6
2020-Jul-09 15:10 095 4 gusting 9 29.8
2020-Jul-09 15:05 060 5 gusting 8 29.2
2020-Jul-09 15:00 150 2 gusting 6 28.9
2020-Jul-09 14:55 070 3 gusting 6 28.6
2020-Jul-09 14:50 070 3 gusting 6 29.1
2020-Jul-09 14:45 130 2 gusting 5 28.9
2020-Jul-09 14:40 070 1 gusting 7 28.9
2020-Jul-09 14:35 050 4 gusting 7 29.2
2020-Jul-09 14:30 055 4 gusting 7 29.6
2020-Jul-09 14:25 040 4 gusting 7 29.6
2020-Jul-09 14:20 100 2 gusting 5 29.8
2020-Jul-09 14:15 065 2 gusting 5 29.9
2020-Jul-09 14:10 005 1 gusting 5 29.6
2020-Jul-09 14:05 075 1 gusting 6 29.2
2020-Jul-09 14:00 055 4 gusting 6 28.6
2020-Jul-09 13:55 125 3 gusting 6 29.1
2020-Jul-09 13:50 095 3 gusting 7 28.8
2020-Jul-09 13:45 100 3 gusting 7 28.9
2020-Jul-09 13:40 095 1 gusting 6 28.6
2020-Jul-09 13:35 090 4 gusting 7 28.6
2020-Jul-09 13:30 065 3 gusting 7 28.6
2020-Jul-09 13:25 060 4 gusting 8 28.4
2020-Jul-09 13:20 090 2 gusting 8 28.1
2020-Jul-09 13:15 070 3 gusting 8 28.4
2020-Jul-09 13:10 070 3 gusting 8 28.1
2020-Jul-09 13:05 045 4 gusting 6 27.4
2020-Jul-09 13:00 075 4 gusting 6 26.8
2020-Jul-09 12:55 080 2 gusting 4 26.8
2020-Jul-09 12:50 005 2 gusting 5 26.4
2020-Jul-09 12:45 095 1 gusting 4 26.2
2020-Jul-09 12:40 330 1 gusting 4 26.2
2020-Jul-09 12:35 030 1 gusting 3 25.9
2020-Jul-09 12:30 010 1 gusting 3 26.2
2020-Jul-09 12:25 280 1 gusting 2 25.6
2020-Jul-09 12:20 005 1 gusting 4 25.6
2020-Jul-09 12:15 310 1 gusting 4 25.1
2020-Jul-09 12:10 25.1
2020-Jul-09 12:05 310 1 gusting 3 25.2
2020-Jul-09 12:00 325 1 gusting 3 24.9
2020-Jul-09 11:55 325 1 gusting 3 24.6
2020-Jul-09 11:50 145 0 gusting 2 24.6
2020-Jul-09 11:45 315 1 gusting 3 24.4
2020-Jul-09 11:40 155 1 gusting 3 24.4
2020-Jul-09 11:35 140 1 gusting 2 24.2
2020-Jul-09 11:30 160 0 gusting 3 24.4
2020-Jul-09 11:25 045 1 gusting 3 24.1
2020-Jul-09 11:20 315 1 gusting 3 23.9
2020-Jul-09 11:15 325 0 gusting 3 23.8
2020-Jul-09 11:10 050 1 gusting 2 23.6
2020-Jul-09 11:05 315 0 gusting 2 23.6
2020-Jul-09 11:00 005 0 gusting 2 23.4
2020-Jul-09 10:55 065 1 gusting 2 23.4
2020-Jul-09 10:50 310 1 gusting 2 23.4
2020-Jul-09 10:45 105 1 gusting 2 23.2
2020-Jul-09 10:40 165 0 gusting 2 23.1
2020-Jul-09 10:35 220 0 gusting 3 23.1
2020-Jul-09 10:30 23.1
2020-Jul-09 10:25 335 1 gusting 3 23.1
2020-Jul-09 10:20 010 1 gusting 2 23.1
2020-Jul-09 10:15 23.1
2020-Jul-09 10:10 005 0 gusting 3 23.2
2020-Jul-09 10:05 215 0 gusting 2 23.1
2020-Jul-09 10:00 145 1 gusting 2 23.1
2020-Jul-09 09:55 125 1 gusting 2 23.1
2020-Jul-09 09:50 165 0 gusting 2 23.1
2020-Jul-09 09:45 100 1 gusting 3 23.2
2020-Jul-09 09:40 105 1 gusting 4 23.2
2020-Jul-09 09:35 100 1 gusting 4 23.4
2020-Jul-09 09:30 110 3 gusting 3 23.4
2020-Jul-09 09:25 095 1 gusting 3 23.4
2020-Jul-09 09:20 140 2 gusting 4 23.4
2020-Jul-09 09:15 150 3 gusting 4 23.4
2020-Jul-09 09:10 145 2 gusting 5 23.4
2020-Jul-09 09:05 140 4 gusting 5 23.4
2020-Jul-09 09:00 150 3 gusting 4 23.1
2020-Jul-09 08:55 160 2 gusting 3 22.9
2020-Jul-09 08:50 140 2 gusting 3 22.6
2020-Jul-09 08:45 145 2 gusting 3 22.6
2020-Jul-09 08:40 140 1 gusting 2 22.4
2020-Jul-09 08:35 105 1 gusting 2 22.1
2020-Jul-09 08:30 045 1 gusting 2 21.9
2020-Jul-09 08:25 030 1 gusting 2 21.9
2020-Jul-09 08:20 005 1 gusting 2 21.9
2020-Jul-09 08:15 355 0 gusting 2 22.1
2020-Jul-09 08:10 305 1 gusting 2 22.1
2020-Jul-09 08:05 315 0 gusting 2 22.1
2020-Jul-09 08:00 005 1 gusting 2 22.2
2020-Jul-09 07:55 020 1 gusting 2 22.2
2020-Jul-09 07:50 010 1 gusting 3 22.1
2020-Jul-09 07:45 010 1 gusting 3 22.1
2020-Jul-09 07:40 020 2 gusting 3 22.2
2020-Jul-09 07:35 045 2 gusting 3 22.2
2020-Jul-09 07:30 070 2 gusting 3 22.2
2020-Jul-09 07:25 070 2 gusting 2 22.4
2020-Jul-09 07:20 090 1 gusting 2 22.6
2020-Jul-09 07:15 100 1 gusting 2 22.6
2020-Jul-09 07:10 095 1 gusting 1 22.6
2020-Jul-09 07:05 170 1 gusting 2 22.2
2020-Jul-09 07:00 180 1 gusting 2 22.1
2020-Jul-09 06:55 170 2 gusting 3 22.1
2020-Jul-09 06:50 170 3 gusting 3 22.1
2020-Jul-09 06:45 190 2 gusting 3 22.1
2020-Jul-09 06:40 190 1 gusting 1 22.1
2020-Jul-09 06:35 205 1 gusting 1 22.2
2020-Jul-09 06:30 145 0 gusting 1 22.4
2020-Jul-09 06:25 205 0 gusting 1 22.4
2020-Jul-09 06:20 290 1 gusting 1 22.6
2020-Jul-09 06:15 285 1 gusting 1 22.6
2020-Jul-09 06:10 280 1 gusting 1 22.6
2020-Jul-09 06:05 355 1 gusting 3 22.8
2020-Jul-09 05:55 310 1 gusting 2 22.8
2020-Jul-09 05:50 295 1 gusting 2 22.9
2020-Jul-09 05:45 240 0 gusting 2 23.1
2020-Jul-09 05:40 065 1 gusting 2 23.1
2020-Jul-09 05:30 055 1 gusting 2 23.2
2020-Jul-09 05:20 005 2 gusting 2 23.2
2020-Jul-09 05:15 035 1 gusting 2 23.4
2020-Jul-09 05:10 045 2 gusting 2 23.4
2020-Jul-09 05:05 045 1 gusting 2 23.6
2020-Jul-09 05:00 105 0 gusting 2 23.8
2020-Jul-09 04:55 135 1 gusting 2 23.8
2020-Jul-09 04:50 130 2 gusting 2 23.9
2020-Jul-09 03:50 145 3 gusting 7 24.9
2020-Jul-09 03:45 165 5 gusting 8 24.9
2020-Jul-09 03:40 175 5 gusting 8 24.9
2020-Jul-09 03:35 160 5 gusting 9 25.1
2020-Jul-09 03:30 165 6 gusting 9 25.1
2020-Jul-09 03:25 160 6 gusting 8 25.1
2020-Jul-09 03:10 170 4 gusting 8 25.1
2020-Jul-09 02:55 175 3 gusting 6 25.1
2020-Jul-09 02:35 160 3 gusting 4 24.6
2020-Jul-09 02:30 145 2 gusting 4 24.8
2020-Jul-09 02:25 145 2 gusting 5 24.8
2020-Jul-09 02:20 135 3 gusting 5 24.9
2020-Jul-09 02:15 140 4 gusting 5 24.9
2020-Jul-09 02:10 145 4 gusting 6 25.1
2020-Jul-09 02:05 140 4 gusting 6 25.1
2020-Jul-09 02:00 140 4 gusting 6 25.1
2020-Jul-09 01:55 135 4 gusting 6 25.2
2020-Jul-09 01:50 110 3 gusting 5 25.4
2020-Jul-09 01:45 125 2 gusting 5 25.4
2020-Jul-09 01:40 110 2 gusting 4 25.4
2020-Jul-09 01:35 110 2 gusting 4 25.6
2020-Jul-09 01:30 105 3 gusting 4 25.6
2020-Jul-09 01:25 110 2 gusting 4 25.6
2020-Jul-09 01:20 095 2 gusting 5 25.8
2020-Jul-09 01:15 105 3 gusting 5 25.6
2020-Jul-09 01:10 105 4 gusting 5 25.6
2020-Jul-09 01:05 115 4 gusting 6 25.8
2020-Jul-09 01:00 110 4 gusting 6 25.9